RJA434 OSAP-OJAI

Flight info

Callsign RJA434
Flight time 0h 51m
Altitude 34000
Route KILO Q538 KTN R655 LEBOR L513 BUSRA DCT LUDAN
Aircraft A21N/M-SDE2E3FGHIRWXY/LB1

Departure

Time 2026-05-06 15:34
Airport Aleppo International Airport (OSAP)

Arrival

Time 2026-05-06 16:25
Airport Queen Alia International Airport (OJAI)
Time Latitude Longitude Altitude Speed Heading
2026-05-06 15:21 36.18392 37.22760 1271 ft 1 kts
2026-05-06 15:27 36.18371 37.22758 1274 ft 4 kts
2026-05-06 15:27 36.18344 37.22755 1277 ft 4 kts
2026-05-06 15:28 36.18317 37.22750 1273 ft 4 kts 20°
2026-05-06 15:28 36.18301 37.22736 1271 ft 4 kts 83°
2026-05-06 15:28 36.18301 37.22726 1274 ft 0 kts 95°
2026-05-06 15:30 36.18298 37.22765 1272 ft 10 kts 95°
2026-05-06 15:31 36.18290 37.22863 1270 ft 13 kts 97°
2026-05-06 15:31 36.18237 37.22953 1269 ft 16 kts 178°
2026-05-06 15:31 36.18165 37.23056 1271 ft 20 kts 92°
2026-05-06 15:32 36.18126 37.23448 1272 ft 28 kts 97°
2026-05-06 15:32 36.18102 37.23695 1273 ft 29 kts 96°
2026-05-06 15:32 36.18061 37.23931 1274 ft 28 kts 133°
2026-05-06 15:32 36.17931 37.24000 1272 ft 12 kts 229°
2026-05-06 15:33 36.17925 37.23899 1273 ft 14 kts 278°
2026-05-06 15:33 36.17951 37.23631 1273 ft 64 kts 276°
2026-05-06 15:33 36.18028 37.22810 1268 ft 125 kts 276°
2026-05-06 15:33 36.18143 37.21588 1349 ft 153 kts 276°
2026-05-06 15:34 36.18259 37.20305 1953 ft 151 kts 277°
2026-05-06 15:34 36.18381 37.19002 2507 ft 154 kts 276°
2026-05-06 15:34 36.18517 37.17694 3072 ft 156 kts 276°
2026-05-06 15:34 36.18637 37.16290 3450 ft 173 kts 270°
2026-05-06 15:35 36.18216 37.14831 3787 ft 198 kts 234°
2026-05-06 15:35 36.17048 37.13740 4096 ft 229 kts 204°
2026-05-06 15:35 36.15378 37.13475 4500 ft 258 kts 176°
2026-05-06 15:35 36.13609 37.14103 5206 ft 269 kts 168°
2026-05-06 15:36 36.11759 37.14328 6111 ft 267 kts 182°
2026-05-06 15:36 36.09847 37.14345 6646 ft 286 kts 182°
2026-05-06 15:36 36.07772 37.14392 6958 ft 309 kts 180°
2026-05-06 15:36 36.05544 37.14486 7275 ft 330 kts 179°
2026-05-06 15:37 36.03200 37.14615 7783 ft 341 kts 179°
2026-05-06 15:37 36.00817 37.14762 8554 ft 345 kts 179°
2026-05-06 15:37 35.98408 37.14916 9298 ft 350 kts 178°
2026-05-06 15:37 35.95964 37.15074 10058 ft 354 kts 179°
2026-05-06 15:38 35.93492 37.15238 10720 ft 359 kts 179°
2026-05-06 15:38 35.90982 37.15404 11381 ft 364 kts 179°
2026-05-06 15:38 35.88433 37.15574 12043 ft 369 kts 179°
2026-05-06 15:38 35.85858 37.15745 12745 ft 373 kts 179°
2026-05-06 15:39 35.83283 37.15915 13400 ft 378 kts 179°
2026-05-06 15:39 35.80639 37.16090 14029 ft 383 kts 179°
2026-05-06 15:39 35.77959 37.16269 14607 ft 388 kts 179°
2026-05-06 15:39 35.75243 37.16449 15185 ft 392 kts 179°
2026-05-06 15:40 35.72513 37.16629 15776 ft 396 kts 179°
2026-05-06 15:40 35.69742 37.16810 16381 ft 400 kts 179°
2026-05-06 15:40 35.66951 37.16994 16982 ft 404 kts 179°
2026-05-06 15:40 35.64130 37.17181 17567 ft 408 kts 180°
2026-05-06 15:41 35.61280 37.17369 18171 ft 411 kts 180°
2026-05-06 15:41 35.58410 37.17559 18702 ft 415 kts 180°
2026-05-06 15:41 35.55512 37.17750 19222 ft 418 kts 180°
2026-05-06 15:41 35.52599 37.17940 19736 ft 421 kts 180°
2026-05-06 15:42 35.49661 37.18132 20242 ft 424 kts 180°
2026-05-06 15:42 35.46707 37.18322 20737 ft 427 kts 180°
2026-05-06 15:42 35.43726 37.18516 21226 ft 430 kts 180°
2026-05-06 15:42 35.40724 37.18714 21719 ft 433 kts 180°
2026-05-06 15:43 35.37703 37.18914 22207 ft 436 kts 181°
2026-05-06 15:43 35.34704 37.19110 22680 ft 439 kts 181°
2026-05-06 15:43 35.31643 37.19310 23165 ft 442 kts 181°
2026-05-06 15:43 35.28560 37.19512 23621 ft 445 kts 181°
2026-05-06 15:44 35.25460 37.19715 24004 ft 448 kts 181°
2026-05-06 15:44 35.22342 37.19919 24384 ft 450 kts 181°
2026-05-06 15:44 35.19212 37.20123 24811 ft 452 kts 181°
2026-05-06 15:44 35.16064 37.20327 25211 ft 454 kts 181°
2026-05-06 15:45 35.12904 37.20532 25607 ft 456 kts 181°
2026-05-06 15:45 35.09723 37.20738 26006 ft 458 kts 181°
2026-05-06 15:45 35.06532 37.20945 26393 ft 460 kts 181°
2026-05-06 15:45 35.03332 37.21153 26770 ft 462 kts 181°
2026-05-06 15:46 35.00112 37.21365 27128 ft 463 kts 182°
2026-05-06 15:46 34.96901 37.21572 27619 ft 462 kts 182°
2026-05-06 15:46 34.93690 37.21781 28126 ft 460 kts 182°
2026-05-06 15:46 34.90499 37.21989 28617 ft 459 kts 182°
2026-05-06 15:47 34.87358 37.22191 29090 ft 457 kts 183°
2026-05-06 15:47 34.84189 37.22396 29566 ft 456 kts 183°
2026-05-06 15:47 34.80981 37.22603 29993 ft 455 kts 183°
2026-05-06 15:47 34.77825 37.22805 30375 ft 454 kts 184°
2026-05-06 15:48 34.74677 37.23006 30732 ft 453 kts 184°
2026-05-06 15:48 34.71577 37.23208 31087 ft 452 kts 184°
2026-05-06 15:48 34.68439 37.23410 31431 ft 450 kts 184°
2026-05-06 15:48 34.65312 37.23611 31717 ft 450 kts 184°
2026-05-06 15:49 34.62194 37.23812 32078 ft 448 kts 184°
2026-05-06 15:49 34.59087 37.24013 32378 ft 447 kts 185°
2026-05-06 15:49 34.55990 37.24212 32692 ft 446 kts 185°
2026-05-06 15:49 34.52896 37.24408 32988 ft 445 kts 185°
2026-05-06 15:50 34.46692 37.24803 33081 ft 449 kts 185°
2026-05-06 15:50 34.40374 37.25204 33062 ft 460 kts 185°
2026-05-06 15:51 34.34002 37.25180 33052 ft 450 kts 197°
2026-05-06 15:51 34.31037 37.24168 33046 ft 438 kts 209°
2026-05-06 15:51 34.28404 37.22409 33057 ft 429 kts 221°
2026-05-06 15:52 34.26228 37.20062 33047 ft 422 kts 232°
2026-05-06 15:52 34.24521 37.17214 33048 ft 416 kts 243°
2026-05-06 15:52 34.22760 37.10645 33032 ft 410 kts 264°
2026-05-06 15:53 34.23019 37.03797 33059 ft 409 kts 274°
2026-05-06 15:53 34.23600 36.96982 33063 ft 411 kts 274°
2026-05-06 15:54 34.24141 36.90089 33066 ft 412 kts 274°
2026-05-06 15:54 34.24678 36.83189 33063 ft 412 kts 274°
2026-05-06 15:55 34.25202 36.76289 33063 ft 412 kts 274°
2026-05-06 15:55 34.25124 36.70548 33078 ft 413 kts 261°
2026-05-06 15:56 34.24331 36.67205 33071 ft 415 kts 250°
2026-05-06 15:56 34.22955 36.64130 33072 ft 420 kts 239°
2026-05-06 15:56 34.21045 36.61434 33072 ft 427 kts 228°
2026-05-06 15:56 34.18651 36.59263 33052 ft 434 kts 216°
2026-05-06 15:57 34.15870 36.57751 33080 ft 445 kts 204°
2026-05-06 15:57 34.12810 36.57001 33071 ft 455 kts 193°
2026-05-06 15:57 34.06440 36.56520 33061 ft 459 kts 191°
2026-05-06 15:58 34.00080 36.56029 33017 ft 458 kts 191°
2026-05-06 15:58 33.93834 36.55031 33051 ft 450 kts 197°
2026-05-06 15:59 33.87709 36.53683 33052 ft 451 kts 197°
2026-05-06 15:59 33.81458 36.52644 33040 ft 455 kts 193°
2026-05-06 16:00 33.75168 36.51829 33037 ft 454 kts 193°
2026-05-06 16:00 33.68882 36.51005 33044 ft 454 kts 193°
2026-05-06 16:01 33.62642 36.50182 33041 ft 454 kts 193°
2026-05-06 16:01 33.56351 36.49372 33033 ft 455 kts 193°
2026-05-06 16:02 33.50052 36.48579 33049 ft 455 kts 193°
2026-05-06 16:02 33.43708 36.48075 33049 ft 465 kts 183°
2026-05-06 16:03 33.37236 36.48916 33026 ft 467 kts 181°
2026-05-06 16:03 33.30763 36.49769 33048 ft 467 kts 181°
2026-05-06 16:04 33.24354 36.50566 33049 ft 466 kts 181°
2026-05-06 16:04 33.17895 36.51357 33055 ft 466 kts 181°
2026-05-06 16:05 33.14694 36.51751 32789 ft 457 kts 182°
2026-05-06 16:05 33.11574 36.52139 32447 ft 445 kts 182°
2026-05-06 16:05 33.08490 36.52519 32166 ft 446 kts 182°
2026-05-06 16:05 33.05420 36.52896 31910 ft 446 kts 182°
2026-05-06 16:06 33.02309 36.53277 31669 ft 447 kts 182°
2026-05-06 16:06 32.99209 36.53652 31224 ft 445 kts 182°
2026-05-06 16:06 32.96167 36.54022 30557 ft 444 kts 182°
2026-05-06 16:06 32.93097 36.54395 29737 ft 443 kts 182°
2026-05-06 16:07 32.90032 36.54769 28902 ft 444 kts 182°
2026-05-06 16:07 32.86948 36.55146 28090 ft 444 kts 182°
2026-05-06 16:07 32.83886 36.55521 27383 ft 441 kts 182°
2026-05-06 16:07 32.80840 36.55892 26692 ft 439 kts 182°
2026-05-06 16:08 32.77806 36.56261 26037 ft 436 kts 182°
2026-05-06 16:08 32.74791 36.56628 25385 ft 434 kts 182°
2026-05-06 16:08 32.71783 36.56995 24724 ft 432 kts 182°
2026-05-06 16:08 32.68837 36.57353 24049 ft 431 kts 182°
2026-05-06 16:09 32.65860 36.57715 23353 ft 429 kts 182°
2026-05-06 16:09 32.62903 36.58074 22614 ft 427 kts 182°
2026-05-06 16:09 32.59953 36.58431 21890 ft 425 kts 181°
2026-05-06 16:09 32.57025 36.58787 21194 ft 422 kts 181°
2026-05-06 16:10 32.54109 36.59141 20534 ft 419 kts 181°
2026-05-06 16:10 32.51221 36.59491 19909 ft 416 kts 181°
2026-05-06 16:10 32.48350 36.59839 19297 ft 413 kts 181°
2026-05-06 16:10 32.45497 36.60185 18712 ft 411 kts 181°
2026-05-06 16:11 32.42659 36.60528 18083 ft 407 kts 180°
2026-05-06 16:11 32.39858 36.60868 17424 ft 401 kts 180°
2026-05-06 16:11 32.37095 36.61204 16796 ft 396 kts 180°
2026-05-06 16:11 32.34380 36.61354 16198 ft 383 kts 189°
2026-05-06 16:12 32.31840 36.60707 15704 ft 366 kts 206°
2026-05-06 16:12 32.29569 36.59403 15406 ft 362 kts 213°
2026-05-06 16:12 32.27370 36.57975 15124 ft 360 kts 213°
2026-05-06 16:12 32.25202 36.56568 14775 ft 358 kts 213°
2026-05-06 16:13 32.23014 36.55164 14318 ft 358 kts 213°
2026-05-06 16:13 32.20816 36.53763 13797 ft 359 kts 213°
2026-05-06 16:13 32.18614 36.52367 13231 ft 359 kts 212°
2026-05-06 16:13 32.16411 36.50974 12698 ft 359 kts 212°
2026-05-06 16:14 32.14212 36.49588 12164 ft 359 kts 212°
2026-05-06 16:14 32.12007 36.48199 11604 ft 359 kts 212°
2026-05-06 16:14 32.09825 36.46827 11218 ft 349 kts 212°
2026-05-06 16:14 32.07726 36.45508 10991 ft 335 kts 211°
2026-05-06 16:15 32.05712 36.44242 10813 ft 320 kts 212°
2026-05-06 16:15 32.03796 36.43036 10647 ft 306 kts 212°
2026-05-06 16:15 32.01963 36.41883 10483 ft 292 kts 212°
2026-05-06 16:15 32.00208 36.40779 10308 ft 280 kts 212°
2026-05-06 16:16 31.98497 36.39702 9885 ft 278 kts 212°
2026-05-06 16:16 31.96813 36.38642 9368 ft 278 kts 211°
2026-05-06 16:16 31.95106 36.37569 8874 ft 279 kts 211°
2026-05-06 16:16 31.93396 36.36495 8408 ft 278 kts 210°
2026-05-06 16:17 31.91701 36.35432 7990 ft 276 kts 210°
2026-05-06 16:17 31.90008 36.34370 7608 ft 272 kts 210°
2026-05-06 16:17 31.88332 36.33320 7236 ft 273 kts 210°
2026-05-06 16:17 31.86660 36.32272 6923 ft 271 kts 210°
2026-05-06 16:18 31.85011 36.31239 6597 ft 267 kts 209°
2026-05-06 16:18 31.83409 36.30234 6360 ft 259 kts 209°
2026-05-06 16:18 31.81850 36.29255 6202 ft 248 kts 209°
2026-05-06 16:18 31.80359 36.28321 6151 ft 238 kts 210°
2026-05-06 16:19 31.78890 36.27401 6205 ft 239 kts 209°
2026-05-06 16:19 31.77482 36.26381 6130 ft 236 kts 223°
2026-05-06 16:19 31.76578 36.24805 5899 ft 234 kts 251°
2026-05-06 16:19 31.76200 36.22942 5568 ft 234 kts 262°
2026-05-06 16:20 31.76017 36.21076 5320 ft 224 kts 265°
2026-05-06 16:20 31.75853 36.19327 5267 ft 204 kts 264°
2026-05-06 16:20 31.75665 36.17784 5286 ft 177 kts 263°
2026-05-06 16:20 31.75489 36.16516 5106 ft 146 kts 262°
2026-05-06 16:21 31.75327 36.15370 4922 ft 140 kts 264°
2026-05-06 16:21 31.75164 36.14235 4728 ft 142 kts 263°
2026-05-06 16:21 31.75001 36.13095 4548 ft 141 kts 264°
2026-05-06 16:21 31.74840 36.11976 4369 ft 137 kts 265°
2026-05-06 16:22 31.74681 36.10870 4171 ft 138 kts 264°
2026-05-06 16:22 31.74520 36.09753 3998 ft 139 kts 265°
2026-05-06 16:22 31.74360 36.08638 3814 ft 137 kts 265°
2026-05-06 16:22 31.74202 36.07538 3620 ft 137 kts 264°
2026-05-06 16:23 31.74042 36.06430 3449 ft 138 kts 264°
2026-05-06 16:23 31.73884 36.05331 3249 ft 136 kts 263°
2026-05-06 16:23 31.73727 36.04238 3049 ft 136 kts 263°
2026-05-06 16:23 31.73573 36.03165 2861 ft 133 kts 264°
2026-05-06 16:24 31.73416 36.02079 2671 ft 137 kts 264°
2026-05-06 16:24 31.73259 36.00985 2498 ft 134 kts 264°
2026-05-06 16:24 31.73113 35.99946 2415 ft 116 kts 262°
2026-05-06 16:24 31.73009 35.99247 2413 ft 58 kts 260°
2026-05-06 16:25 31.72958 35.98862 2416 ft 48 kts 261°
2026-05-06 16:25 31.72892 35.98476 2413 ft 49 kts 263°
2026-05-06 16:25 31.72825 35.98190 2412 ft 14 kts 213°
2026-05-06 16:25 31.72771 35.98192 2412 ft 8 kts 173°
2026-05-06 16:26 31.72700 35.98206 2413 ft 16 kts 169°
2026-05-06 16:26 31.72599 35.98268 2414 ft 18 kts 109°
2026-05-06 16:26 31.72610 35.98420 2414 ft 20 kts 78°
2026-05-06 16:26 31.72640 35.98603 2414 ft 24 kts 79°
2026-05-06 16:27 31.72668 35.98798 2414 ft 23 kts 86°
2026-05-06 16:27 31.72601 35.98903 2414 ft 15 kts 172°
2026-05-06 16:27 31.72519 35.98848 2414 ft 17 kts 258°
2026-05-06 16:27 31.72503 35.98758 2414 ft 11 kts 257°
2026-05-06 16:28 31.72478 35.98667 2414 ft 13 kts 248°
2026-05-06 16:28 31.72481 35.98591 2414 ft 9 kts 306°
2026-05-06 16:28 31.72520 35.98576 2414 ft 5 kts 349°
2026-05-06 16:28 31.72529 35.98574 2414 ft 0 kts 350°
2026-05-06 16:30 31.72529 35.98573 2414 ft 0 kts 350°